Location: Finkenbach
(49.5340°N, 8.9188°E)
Time: 15:27:08
(UTC+00:00)

Cosmos 2233 Rocket - Pass Details

Date: 17 June 2025
Orbit: 953 x 989 km, 82.9° (Epoch: 19 July)

Event Time Altitude Azimuth Distance (km) Brightness Sun altitude
Rises 21:02:46 0° 350° (N) 3,709 8.4 -10.5°
Reaches altitude 10° 21:05:18 10° 352° (N) 2,759 7.5 -10.7°
Maximum altitude 21:11:39 82° 80° (E) 1,005 4.1 -11.2°
Enters shadow 21:17:18 13° 168° (SSE) 2,494 5.5 -11.7°
